Location: Góry Miechowskie
(50.3599°N, 20.1803°E)
Time: 07:02:52
(UTC+00:00)

A-11 Canister half - Pass Details

Date: 19 September 2024
Orbit: 1515 x 1684 km, 47.2° (Epoch: 05 October)

Event Time Altitude Azimuth Distance (km) Brightness Sun altitude
Rises 23:09:28 0° 287° (WNW) 4,665 11.6 -38.0°
Enters shadow 23:12:54 - 276° (W) 3,759 11.0 -37.9°
Reaches altitude 10° 23:13:14 10° 275° (W) 3,677 - -37.9°
Maximum altitude 23:20:00 24° 227° (SW) 2,764 - -37.7°
Drops below altitude 10° 23:26:50 10° 178° (S) 3,699 - -37.4°
Sets 23:30:40 0° 166° (SSE) 4,700 - -37.2°
